owner,sensor,date,latitude,longitude,air_pressure(mBar),qcFlag 
WAVCIS,ioos:station:WAVCIS:CSI09:1,2008-02-01T00:00:00Z,29.1015,-89.9782,1009.59,11111222 
WAVCIS,ioos:station:WAVCIS:CSI09:1,2008-02-01T01:00:00Z,29.1015,-89.9782,1011.96,11111222 
WAVCIS,ioos:station:WAVCIS:CSI09:1,2008-02-01T02:00:00Z,29.1015,-89.9782,1013.74,11111222 
WAVCIS,ioos:station:WAVCIS:CSI09:1,2008-02-01T03:00:00Z,29.1015,-89.9782,1014.73,11111222 
WAVCIS,ioos:station:WAVCIS:CSI09:1,2008-02-01T04:00:00Z,29.1015,-89.9782,1015.91,11111222 
WAVCIS,ioos:station:WAVCIS:CSI09:1,2008-02-01T05:00:00Z,29.1015,-89.9782,1016.96,11111222 
WAVCIS,ioos:station:WAVCIS:CSI09:1,2008-02-01T06:00:00Z,29.1015,-89.9782,1017.75,11111222 
WAVCIS,ioos:station:WAVCIS:CSI09:1,2008-02-01T07:00:00Z,29.1015,-89.9782,1018.6,11111222 
WAVCIS,ioos:station:WAVCIS:CSI09:1,2008-02-01T08:00:00Z,29.1015,-89.9782,1018.97,11111222 
WAVCIS,ioos:station:WAVCIS:CSI09:1,2008-02-01T09:00:00Z,29.1015,-89.9782,1019.21,11111222 
WAVCIS,ioos:station:WAVCIS:CSI09:1,2008-02-01T10:00:00Z,29.1015,-89.9782,1019.66,11111222 
WAVCIS,ioos:station:WAVCIS:CSI09:1,2008-02-01T11:00:00Z,29.1015,-89.9782,1020.53,11111222 
WAVCIS,ioos:station:WAVCIS:CSI09:1,2008-02-01T12:00:00Z,29.1015,-89.9782,1021.16,11111222 
WAVCIS,ioos:station:WAVCIS:CSI09:1,2008-02-01T13:00:00Z,29.1015,-89.9782,1021.81,11111222 
WAVCIS,ioos:station:WAVCIS:CSI09:1,2008-02-01T14:00:00Z,29.1015,-89.9782,1022.63,11111222 
WAVCIS,ioos:station:WAVCIS:CSI09:1,2008-02-01T15:00:00Z,29.1015,-89.9782,1023.37,11111222 
WAVCIS,ioos:station:WAVCIS:CSI09:1,2008-02-01T16:00:00Z,29.1015,-89.9782,1024.22,11111222 
WAVCIS,ioos:station:WAVCIS:CSI09:1,2008-02-01T17:00:00Z,29.1015,-89.9782,1024.34,11111222 
WAVCIS,ioos:station:WAVCIS:CSI09:1,2008-02-01T18:00:00Z,29.1015,-89.9782,1024.01,11111222 
WAVCIS,ioos:station:WAVCIS:CSI09:1,2008-02-01T19:00:00Z,29.1015,-89.9782,1023.2,11111222 
WAVCIS,ioos:station:WAVCIS:CSI09:1,2008-02-01T20:00:00Z,29.1015,-89.9782,1022.71,11111222 
WAVCIS,ioos:station:WAVCIS:CSI09:1,2008-02-01T21:00:00Z,29.1015,-89.9782,1022.27,11111222 
WAVCIS,ioos:station:WAVCIS:CSI09:1,2008-02-01T22:00:00Z,29.1015,-89.9782,1022.13,11111222 
WAVCIS,ioos:station:WAVCIS:CSI09:1,2008-02-01T23:00:00Z,29.1015,-89.9782,1022.07,11111222 
WAVCIS,ioos:station:WAVCIS:CSI09:1,2008-02-02T00:00:00Z,29.1015,-89.9782,1022.34,11111222 
WAVCIS,ioos:station:WAVCIS:CSI09:1,2008-02-02T01:00:00Z,29.1015,-89.9782,1022.48,11111222 
WAVCIS,ioos:station:WAVCIS:CSI09:1,2008-02-02T02:00:00Z,29.1015,-89.9782,1022.8,11111222 
WAVCIS,ioos:station:WAVCIS:CSI09:1,2008-02-02T03:00:00Z,29.1015,-89.9782,1022.51,11111222 
WAVCIS,ioos:station:WAVCIS:CSI09:1,2008-02-02T04:00:00Z,29.1015,-89.9782,1022.06,11111222 
WAVCIS,ioos:station:WAVCIS:CSI09:1,2008-02-02T05:00:00Z,29.1015,-89.9782,1022.28,11111222 
WAVCIS,ioos:station:WAVCIS:CSI09:1,2008-02-02T06:00:00Z,29.1015,-89.9782,1022.43,11111222 
WAVCIS,ioos:station:WAVCIS:CSI09:1,2008-02-02T07:00:00Z,29.1015,-89.9782,1022.1,11111222 
WAVCIS,ioos:station:WAVCIS:CSI09:1,2008-02-02T08:00:00Z,29.1015,-89.9782,1021.5,11111222 
WAVCIS,ioos:station:WAVCIS:CSI09:1,2008-02-02T09:00:00Z,29.1015,-89.9782,1021.39,11111222 
WAVCIS,ioos:station:WAVCIS:CSI09:1,2008-02-02T10:00:00Z,29.1015,-89.9782,1021.06,11111222 
WAVCIS,ioos:station:WAVCIS:CSI09:1,2008-02-02T11:00:00Z,29.1015,-89.9782,1020.96,11111222 
WAVCIS,ioos:station:WAVCIS:CSI09:1,2008-02-02T12:00:00Z,29.1015,-89.9782,1021.79,11111222 
WAVCIS,ioos:station:WAVCIS:CSI09:1,2008-02-02T13:00:00Z,29.1015,-89.9782,1022.17,11111222 
WAVCIS,ioos:station:WAVCIS:CSI09:1,2008-02-02T14:00:00Z,29.1015,-89.9782,1022.12,11111222 
WAVCIS,ioos:station:WAVCIS:CSI09:1,2008-02-02T15:00:00Z,29.1015,-89.9782,1022.77,11111222 
WAVCIS,ioos:station:WAVCIS:CSI09:1,2008-02-02T16:00:00Z,29.1015,-89.9782,1023.3,11111222 
WAVCIS,ioos:station:WAVCIS:CSI09:1,2008-02-02T17:00:00Z,29.1015,-89.9782,1023.81,11111222 
WAVCIS,ioos:station:WAVCIS:CSI09:1,2008-02-02T18:00:00Z,29.1015,-89.9782,1023.16,11111222 
WAVCIS,ioos:station:WAVCIS:CSI09:1,2008-02-02T19:00:00Z,29.1015,-89.9782,1022.02,11111222 
WAVCIS,ioos:station:WAVCIS:CSI09:1,2008-02-02T20:00:00Z,29.1015,-89.9782,1021.12,11111222 
WAVCIS,ioos:station:WAVCIS:CSI09:1,2008-02-02T21:00:00Z,29.1015,-89.9782,1020.68,11111222 
WAVCIS,ioos:station:WAVCIS:CSI09:1,2008-02-02T22:00:00Z,29.1015,-89.9782,1020.34,11111222 
WAVCIS,ioos:station:WAVCIS:CSI09:1,2008-02-02T23:00:00Z,29.1015,-89.9782,1020.27,11111222 
WAVCIS,ioos:station:WAVCIS:CSI09:1,2008-02-03T00:00:00Z,29.1015,-89.9782,1019.94,11111222 
WAVCIS,ioos:station:WAVCIS:CSI09:1,2008-02-03T01:00:00Z,29.1015,-89.9782,1020.31,11111222 
WAVCIS,ioos:station:WAVCIS:CSI09:1,2008-02-03T02:00:00Z,29.1015,-89.9782,1020.57,11111222 
WAVCIS,ioos:station:WAVCIS:CSI09:1,2008-02-03T03:00:00Z,29.1015,-89.9782,1020.45,11111222 
WAVCIS,ioos:station:WAVCIS:CSI09:1,2008-02-03T04:00:00Z,29.1015,-89.9782,1020.85,11111222 
WAVCIS,ioos:station:WAVCIS:CSI09:1,2008-02-03T05:00:00Z,29.1015,-89.9782,1020.28,11111222 
WAVCIS,ioos:station:WAVCIS:CSI09:1,2008-02-03T06:00:00Z,29.1015,-89.9782,1019.58,11111222 
WAVCIS,ioos:station:WAVCIS:CSI09:1,2008-02-03T07:00:00Z,29.1015,-89.9782,1019.98,11111222 
WAVCIS,ioos:station:WAVCIS:CSI09:1,2008-02-03T08:00:00Z,29.1015,-89.9782,1019.49,11111222 
WAVCIS,ioos:station:WAVCIS:CSI09:1,2008-02-03T09:00:00Z,29.1015,-89.9782,1019.21,11111222 
WAVCIS,ioos:station:WAVCIS:CSI09:1,2008-02-03T10:00:00Z,29.1015,-89.9782,1018.83,11111222 
WAVCIS,ioos:station:WAVCIS:CSI09:1,2008-02-03T11:00:00Z,29.1015,-89.9782,1019.07,11111222 
WAVCIS,ioos:station:WAVCIS:CSI09:1,2008-02-03T12:00:00Z,29.1015,-89.9782,1019.31,11111222 
WAVCIS,ioos:station:WAVCIS:CSI09:1,2008-02-03T13:00:00Z,29.1015,-89.9782,1019.53,11111222 
WAVCIS,ioos:station:WAVCIS:CSI09:1,2008-02-03T14:00:00Z,29.1015,-89.9782,1019.83,11111222 
WAVCIS,ioos:station:WAVCIS:CSI09:1,2008-02-03T15:00:00Z,29.1015,-89.9782,1019.66,11111222 
WAVCIS,ioos:station:WAVCIS:CSI09:1,2008-02-03T16:00:00Z,29.1015,-89.9782,1019.89,11111222 
WAVCIS,ioos:station:WAVCIS:CSI09:1,2008-02-03T17:00:00Z,29.1015,-89.9782,1020.08,11111222 
WAVCIS,ioos:station:WAVCIS:CSI09:1,2008-02-03T18:00:00Z,29.1015,-89.9782,1019.36,11111222 
WAVCIS,ioos:station:WAVCIS:CSI09:1,2008-02-03T19:00:00Z,29.1015,-89.9782,1018.18,11111222 
WAVCIS,ioos:station:WAVCIS:CSI09:1,2008-02-03T20:00:00Z,29.1015,-89.9782,1017.8,11111222 
WAVCIS,ioos:station:WAVCIS:CSI09:1,2008-02-03T21:00:00Z,29.1015,-89.9782,1017.59,11111222 
WAVCIS,ioos:station:WAVCIS:CSI09:1,2008-02-03T22:00:00Z,29.1015,-89.9782,1017.52,11111222 
WAVCIS,ioos:station:WAVCIS:CSI09:1,2008-02-03T23:00:00Z,29.1015,-89.9782,1017.4,11111222 
WAVCIS,ioos:station:WAVCIS:CSI09:1,2008-02-04T00:00:00Z,29.1015,-89.9782,1017.26,11111222 
WAVCIS,ioos:station:WAVCIS:CSI09:1,2008-02-04T01:00:00Z,29.1015,-89.9782,1017.31,11111222 
WAVCIS,ioos:station:WAVCIS:CSI09:1,2008-02-04T02:00:00Z,29.1015,-89.9782,1017.49,11111222 
WAVCIS,ioos:station:WAVCIS:CSI09:1,2008-02-04T03:00:00Z,29.1015,-89.9782,1017.5,11111222 
WAVCIS,ioos:station:WAVCIS:CSI09:1,2008-02-04T04:00:00Z,29.1015,-89.9782,1017.49,11111222 
WAVCIS,ioos:station:WAVCIS:CSI09:1,2008-02-04T05:00:00Z,29.1015,-89.9782,1017.55,11111222 
WAVCIS,ioos:station:WAVCIS:CSI09:1,2008-02-04T06:00:00Z,29.1015,-89.9782,1017.1,11111222 
WAVCIS,ioos:station:WAVCIS:CSI09:1,2008-02-04T07:00:00Z,29.1015,-89.9782,1016.64,11111222 
WAVCIS,ioos:station:WAVCIS:CSI09:1,2008-02-04T08:00:00Z,29.1015,-89.9782,1016.55,11111222 
WAVCIS,ioos:station:WAVCIS:CSI09:1,2008-02-04T09:00:00Z,29.1015,-89.9782,1016.61,11111222 
WAVCIS,ioos:station:WAVCIS:CSI09:1,2008-02-04T10:00:00Z,29.1015,-89.9782,1016.61,11111222 
WAVCIS,ioos:station:WAVCIS:CSI09:1,2008-02-04T11:00:00Z,29.1015,-89.9782,1016.78,11111222 
WAVCIS,ioos:station:WAVCIS:CSI09:1,2008-02-04T12:00:00Z,29.1015,-89.9782,1016.99,11111222 
WAVCIS,ioos:station:WAVCIS:CSI09:1,2008-02-04T13:00:00Z,29.1015,-89.9782,1017.38,11111222 
WAVCIS,ioos:station:WAVCIS:CSI09:1,2008-02-04T14:00:00Z,29.1015,-89.9782,1017.7,11111222 
WAVCIS,ioos:station:WAVCIS:CSI09:1,2008-02-04T15:00:00Z,29.1015,-89.9782,1018.04,11111222 
WAVCIS,ioos:station:WAVCIS:CSI09:1,2008-02-04T16:00:00Z,29.1015,-89.9782,1018.2,11111222 
WAVCIS,ioos:station:WAVCIS:CSI09:1,2008-02-04T17:00:00Z,29.1015,-89.9782,1017.92,11111222 
WAVCIS,ioos:station:WAVCIS:CSI09:1,2008-02-04T18:00:00Z,29.1015,-89.9782,1017.28,11111222 
WAVCIS,ioos:station:WAVCIS:CSI09:1,2008-02-04T19:00:00Z,29.1015,-89.9782,1016.34,11111222 
WAVCIS,ioos:station:WAVCIS:CSI09:1,2008-02-04T20:00:00Z,29.1015,-89.9782,1015.89,11111222 
WAVCIS,ioos:station:WAVCIS:CSI09:1,2008-02-04T21:00:00Z,29.1015,-89.9782,1015.5,11111222 
WAVCIS,ioos:station:WAVCIS:CSI09:1,2008-02-04T22:00:00Z,29.1015,-89.9782,1015.67,11111222 
WAVCIS,ioos:station:WAVCIS:CSI09:1,2008-02-04T23:00:00Z,29.1015,-89.9782,1015.68,11111222 
WAVCIS,ioos:station:WAVCIS:CSI09:1,2008-02-05T00:00:00Z,29.1015,-89.9782,1015.57,11111222 
WAVCIS,ioos:station:WAVCIS:CSI09:1,2008-02-05T01:00:00Z,29.1015,-89.9782,1015.84,11111222 
WAVCIS,ioos:station:WAVCIS:CSI09:1,2008-02-05T02:00:00Z,29.1015,-89.9782,1016.1,11111222 
WAVCIS,ioos:station:WAVCIS:CSI09:1,2008-02-05T03:00:00Z,29.1015,-89.9782,1016.08,11111222 
WAVCIS,ioos:station:WAVCIS:CSI09:1,2008-02-05T04:00:00Z,29.1015,-89.9782,1016.0,11111222 
WAVCIS,ioos:station:WAVCIS:CSI09:1,2008-02-05T05:00:00Z,29.1015,-89.9782,1015.91,11111222 
WAVCIS,ioos:station:WAVCIS:CSI09:1,2008-02-05T06:00:00Z,29.1015,-89.9782,1015.5,11111222 
WAVCIS,ioos:station:WAVCIS:CSI09:1,2008-02-05T07:00:00Z,29.1015,-89.9782,1014.99,11111222 
WAVCIS,ioos:station:WAVCIS:CSI09:1,2008-02-05T08:00:00Z,29.1015,-89.9782,1014.7,11111222 
WAVCIS,ioos:station:WAVCIS:CSI09:1,2008-02-05T09:00:00Z,29.1015,-89.9782,1014.61,11111222 
WAVCIS,ioos:station:WAVCIS:CSI09:1,2008-02-05T10:00:00Z,29.1015,-89.9782,1013.96,11111222 
WAVCIS,ioos:station:WAVCIS:CSI09:1,2008-02-05T11:00:00Z,29.1015,-89.9782,1013.69,11111222 
WAVCIS,ioos:station:WAVCIS:CSI09:1,2008-02-05T12:00:00Z,29.1015,-89.9782,1014.12,11111222 
WAVCIS,ioos:station:WAVCIS:CSI09:1,2008-02-05T13:00:00Z,29.1015,-89.9782,1014.68,11111222 
WAVCIS,ioos:station:WAVCIS:CSI09:1,2008-02-05T14:00:00Z,29.1015,-89.9782,1015.04,11111222 
WAVCIS,ioos:station:WAVCIS:CSI09:1,2008-02-05T15:00:00Z,29.1015,-89.9782,1015.68,11111222 
WAVCIS,ioos:station:WAVCIS:CSI09:1,2008-02-05T16:00:00Z,29.1015,-89.9782,1015.77,11111222 
WAVCIS,ioos:station:WAVCIS:CSI09:1,2008-02-05T17:00:00Z,29.1015,-89.9782,1015.41,11111222 
WAVCIS,ioos:station:WAVCIS:CSI09:1,2008-02-05T18:00:00Z,29.1015,-89.9782,1014.79,11111222 
WAVCIS,ioos:station:WAVCIS:CSI09:1,2008-02-05T19:00:00Z,29.1015,-89.9782,1013.15,11111222 
WAVCIS,ioos:station:WAVCIS:CSI09:1,2008-02-05T20:00:00Z,29.1015,-89.9782,1012.25,11111222 
WAVCIS,ioos:station:WAVCIS:CSI09:1,2008-02-05T21:00:00Z,29.1015,-89.9782,1011.25,11111222 
WAVCIS,ioos:station:WAVCIS:CSI09:1,2008-02-05T22:00:00Z,29.1015,-89.9782,1011.06,11111222 
WAVCIS,ioos:station:WAVCIS:CSI09:1,2008-02-05T23:00:00Z,29.1015,-89.9782,1011.06,11111222 
WAVCIS,ioos:station:WAVCIS:CSI09:1,2008-02-06T00:00:00Z,29.1015,-89.9782,1011.15,11111222 
WAVCIS,ioos:station:WAVCIS:CSI09:1,2008-02-06T01:00:00Z,29.1015,-89.9782,1011.63,11111222 
WAVCIS,ioos:station:WAVCIS:CSI09:1,2008-02-06T02:00:00Z,29.1015,-89.9782,1011.69,11111222 
WAVCIS,ioos:station:WAVCIS:CSI09:1,2008-02-06T03:00:00Z,29.1015,-89.9782,1011.28,11111222 
WAVCIS,ioos:station:WAVCIS:CSI09:1,2008-02-06T04:00:00Z,29.1015,-89.9782,1011.33,11111222 
WAVCIS,ioos:station:WAVCIS:CSI09:1,2008-02-06T05:00:00Z,29.1015,-89.9782,1010.88,11111222 
WAVCIS,ioos:station:WAVCIS:CSI09:1,2008-02-06T06:00:00Z,29.1015,-89.9782,1009.85,11111222 
WAVCIS,ioos:station:WAVCIS:CSI09:1,2008-02-06T07:00:00Z,29.1015,-89.9782,1009.64,11111222 
WAVCIS,ioos:station:WAVCIS:CSI09:1,2008-02-06T08:00:00Z,29.1015,-89.9782,1009.75,11111222 
WAVCIS,ioos:station:WAVCIS:CSI09:1,2008-02-06T09:00:00Z,29.1015,-89.9782,1009.76,11111222 
WAVCIS,ioos:station:WAVCIS:CSI09:1,2008-02-06T10:00:00Z,29.1015,-89.9782,1009.01,11111222 
WAVCIS,ioos:station:WAVCIS:CSI09:1,2008-02-06T11:00:00Z,29.1015,-89.9782,1009.18,11111222 
WAVCIS,ioos:station:WAVCIS:CSI09:1,2008-02-06T12:00:00Z,29.1015,-89.9782,1010.05,11111222 
WAVCIS,ioos:station:WAVCIS:CSI09:1,2008-02-06T13:00:00Z,29.1015,-89.9782,1010.68,11111222 
WAVCIS,ioos:station:WAVCIS:CSI09:1,2008-02-06T14:00:00Z,29.1015,-89.9782,1012.58,11111222 
WAVCIS,ioos:station:WAVCIS:CSI09:1,2008-02-06T15:00:00Z,29.1015,-89.9782,1014.0,11111222 
WAVCIS,ioos:station:WAVCIS:CSI09:1,2008-02-06T16:00:00Z,29.1015,-89.9782,1014.52,11111222 
WAVCIS,ioos:station:WAVCIS:CSI09:1,2008-02-06T17:00:00Z,29.1015,-89.9782,1015.09,11111222 
WAVCIS,ioos:station:WAVCIS:CSI09:1,2008-02-06T18:00:00Z,29.1015,-89.9782,1014.86,11111222 
WAVCIS,ioos:station:WAVCIS:CSI09:1,2008-02-06T19:00:00Z,29.1015,-89.9782,1014.24,11111222 
WAVCIS,ioos:station:WAVCIS:CSI09:1,2008-02-06T20:00:00Z,29.1015,-89.9782,1013.59,11111222 
WAVCIS,ioos:station:WAVCIS:CSI09:1,2008-02-06T21:00:00Z,29.1015,-89.9782,1013.26,11111222 
WAVCIS,ioos:station:WAVCIS:CSI09:1,2008-02-06T22:00:00Z,29.1015,-89.9782,1013.46,11111222 
WAVCIS,ioos:station:WAVCIS:CSI09:1,2008-02-06T23:00:00Z,29.1015,-89.9782,1013.64,11111222 
WAVCIS,ioos:station:WAVCIS:CSI09:1,2008-02-07T00:00:00Z,29.1015,-89.9782,1013.85,11111222 
WAVCIS,ioos:station:WAVCIS:CSI09:1,2008-02-07T01:00:00Z,29.1015,-89.9782,1014.43,11111222 
WAVCIS,ioos:station:WAVCIS:CSI09:1,2008-02-07T02:00:00Z,29.1015,-89.9782,1015.21,11111222 
WAVCIS,ioos:station:WAVCIS:CSI09:1,2008-02-07T03:00:00Z,29.1015,-89.9782,1015.79,11111222 
WAVCIS,ioos:station:WAVCIS:CSI09:1,2008-02-07T04:00:00Z,29.1015,-89.9782,1016.17,11111222 
WAVCIS,ioos:station:WAVCIS:CSI09:1,2008-02-07T05:00:00Z,29.1015,-89.9782,1016.13,11111222 
WAVCIS,ioos:station:WAVCIS:CSI09:1,2008-02-07T06:00:00Z,29.1015,-89.9782,1015.94,11111222 
WAVCIS,ioos:station:WAVCIS:CSI09:1,2008-02-07T07:00:00Z,29.1015,-89.9782,1015.9,11111222 
WAVCIS,ioos:station:WAVCIS:CSI09:1,2008-02-07T08:00:00Z,29.1015,-89.9782,1015.78,11111222 
WAVCIS,ioos:station:WAVCIS:CSI09:1,2008-02-07T09:00:00Z,29.1015,-89.9782,1015.84,11111222 
WAVCIS,ioos:station:WAVCIS:CSI09:1,2008-02-07T10:00:00Z,29.1015,-89.9782,1016.19,11111222 
WAVCIS,ioos:station:WAVCIS:CSI09:1,2008-02-07T11:00:00Z,29.1015,-89.9782,1016.26,11111222 
WAVCIS,ioos:station:WAVCIS:CSI09:1,2008-02-07T12:00:00Z,29.1015,-89.9782,1016.88,11111222 
WAVCIS,ioos:station:WAVCIS:CSI09:1,2008-02-07T13:00:00Z,29.1015,-89.9782,1017.18,11111222 
WAVCIS,ioos:station:WAVCIS:CSI09:1,2008-02-07T14:00:00Z,29.1015,-89.9782,1017.49,11111222 
WAVCIS,ioos:station:WAVCIS:CSI09:1,2008-02-07T15:00:00Z,29.1015,-89.9782,1018.34,11111222 
WAVCIS,ioos:station:WAVCIS:CSI09:1,2008-02-07T16:00:00Z,29.1015,-89.9782,1018.77,11111222 
WAVCIS,ioos:station:WAVCIS:CSI09:1,2008-02-07T17:00:00Z,29.1015,-89.9782,1018.75,11111222 
WAVCIS,ioos:station:WAVCIS:CSI09:1,2008-02-07T18:00:00Z,29.1015,-89.9782,1017.78,11111222 
WAVCIS,ioos:station:WAVCIS:CSI09:1,2008-02-07T20:00:00Z,29.1015,-89.9782,1015.39,11111222 
WAVCIS,ioos:station:WAVCIS:CSI09:1,2008-02-07T21:00:00Z,29.1015,-89.9782,1015.22,11111222 
WAVCIS,ioos:station:WAVCIS:CSI09:1,2008-02-07T22:00:00Z,29.1015,-89.9782,1015.43,11111222 
WAVCIS,ioos:station:WAVCIS:CSI09:1,2008-02-07T23:00:00Z,29.1015,-89.9782,1015.28,11111222 
WAVCIS,ioos:station:WAVCIS:CSI09:1,2008-02-08T00:00:00Z,29.1015,-89.9782,1015.43,11111222 
WAVCIS,ioos:station:WAVCIS:CSI09:1,2008-02-08T01:00:00Z,29.1015,-89.9782,1015.86,11111222 
WAVCIS,ioos:station:WAVCIS:CSI09:1,2008-02-08T02:00:00Z,29.1015,-89.9782,1015.68,11111222 
WAVCIS,ioos:station:WAVCIS:CSI09:1,2008-02-08T03:00:00Z,29.1015,-89.9782,1015.71,11111222 
WAVCIS,ioos:station:WAVCIS:CSI09:1,2008-02-08T04:00:00Z,29.1015,-89.9782,1015.92,11111222 
WAVCIS,ioos:station:WAVCIS:CSI09:1,2008-02-08T05:00:00Z,29.1015,-89.9782,1015.85,11111222 
WAVCIS,ioos:station:WAVCIS:CSI09:1,2008-02-08T06:00:00Z,29.1015,-89.9782,1015.63,11111222 
WAVCIS,ioos:station:WAVCIS:CSI09:1,2008-02-08T07:00:00Z,29.1015,-89.9782,1015.72,11111222 
WAVCIS,ioos:station:WAVCIS:CSI09:1,2008-02-08T08:00:00Z,29.1015,-89.9782,1015.54,11111222 
WAVCIS,ioos:station:WAVCIS:CSI09:1,2008-02-08T09:00:00Z,29.1015,-89.9782,1015.31,11111222 
WAVCIS,ioos:station:WAVCIS:CSI09:1,2008-02-08T10:00:00Z,29.1015,-89.9782,1015.26,11111222 
WAVCIS,ioos:station:WAVCIS:CSI09:1,2008-02-08T11:00:00Z,29.1015,-89.9782,1015.39,11111222 
WAVCIS,ioos:station:WAVCIS:CSI09:1,2008-02-08T12:00:00Z,29.1015,-89.9782,1015.89,11111222 
WAVCIS,ioos:station:WAVCIS:CSI09:1,2008-02-08T13:00:00Z,29.1015,-89.9782,1016.38,11111222 
WAVCIS,ioos:station:WAVCIS:CSI09:1,2008-02-08T14:00:00Z,29.1015,-89.9782,1016.68,11111222 
WAVCIS,ioos:station:WAVCIS:CSI09:1,2008-02-08T15:00:00Z,29.1015,-89.9782,1017.17,11111222 
WAVCIS,ioos:station:WAVCIS:CSI09:1,2008-02-08T16:00:00Z,29.1015,-89.9782,1017.46,11111222 
WAVCIS,ioos:station:WAVCIS:CSI09:1,2008-02-08T17:00:00Z,29.1015,-89.9782,1017.34,11111222 
WAVCIS,ioos:station:WAVCIS:CSI09:1,2008-02-08T18:00:00Z,29.1015,-89.9782,1016.82,11111222 
WAVCIS,ioos:station:WAVCIS:CSI09:1,2008-02-08T19:00:00Z,29.1015,-89.9782,1015.65,11111222 
WAVCIS,ioos:station:WAVCIS:CSI09:1,2008-02-08T20:00:00Z,29.1015,-89.9782,1014.83,11111222 
WAVCIS,ioos:station:WAVCIS:CSI09:1,2008-02-08T21:00:00Z,29.1015,-89.9782,1014.55,11111222 
WAVCIS,ioos:station:WAVCIS:CSI09:1,2008-02-08T22:00:00Z,29.1015,-89.9782,1014.64,11111222 
WAVCIS,ioos:station:WAVCIS:CSI09:1,2008-02-08T23:00:00Z,29.1015,-89.9782,1014.7,11111222 
WAVCIS,ioos:station:WAVCIS:CSI09:1,2008-02-09T00:00:00Z,29.1015,-89.9782,1014.59,11111222 
WAVCIS,ioos:station:WAVCIS:CSI09:1,2008-02-09T01:00:00Z,29.1015,-89.9782,1015.11,11111222 
WAVCIS,ioos:station:WAVCIS:CSI09:1,2008-02-09T02:00:00Z,29.1015,-89.9782,1015.08,11111222 
WAVCIS,ioos:station:WAVCIS:CSI09:1,2008-02-09T03:00:00Z,29.1015,-89.9782,1015.41,11111222 
WAVCIS,ioos:station:WAVCIS:CSI09:1,2008-02-09T04:00:00Z,29.1015,-89.9782,1015.67,11111222 
WAVCIS,ioos:station:WAVCIS:CSI09:1,2008-02-09T05:00:00Z,29.1015,-89.9782,1015.84,11111222 
WAVCIS,ioos:station:WAVCIS:CSI09:1,2008-02-09T06:00:00Z,29.1015,-89.9782,1015.5,11111222 
WAVCIS,ioos:station:WAVCIS:CSI09:1,2008-02-09T07:00:00Z,29.1015,-89.9782,1015.48,11111222 
WAVCIS,ioos:station:WAVCIS:CSI09:1,2008-02-09T08:00:00Z,29.1015,-89.9782,1015.74,11111222 
WAVCIS,ioos:station:WAVCIS:CSI09:1,2008-02-09T09:00:00Z,29.1015,-89.9782,1015.75,11111222 
WAVCIS,ioos:station:WAVCIS:CSI09:1,2008-02-09T10:00:00Z,29.1015,-89.9782,1015.64,11111222 
WAVCIS,ioos:station:WAVCIS:CSI09:1,2008-02-09T11:00:00Z,29.1015,-89.9782,1016.27,11111222 
WAVCIS,ioos:station:WAVCIS:CSI09:1,2008-02-09T12:00:00Z,29.1015,-89.9782,1016.98,11111222 
WAVCIS,ioos:station:WAVCIS:CSI09:1,2008-02-09T13:00:00Z,29.1015,-89.9782,1017.28,11111222 
WAVCIS,ioos:station:WAVCIS:CSI09:1,2008-02-09T14:00:00Z,29.1015,-89.9782,1018.03,11111222 
WAVCIS,ioos:station:WAVCIS:CSI09:1,2008-02-09T15:00:00Z,29.1015,-89.9782,1018.59,11111222 
WAVCIS,ioos:station:WAVCIS:CSI09:1,2008-02-09T16:00:00Z,29.1015,-89.9782,1019.08,11111222 
WAVCIS,ioos:station:WAVCIS:CSI09:1,2008-02-09T17:00:00Z,29.1015,-89.9782,1019.34,11111222 
WAVCIS,ioos:station:WAVCIS:CSI09:1,2008-02-09T18:00:00Z,29.1015,-89.9782,1018.86,11111222 
WAVCIS,ioos:station:WAVCIS:CSI09:1,2008-02-09T19:00:00Z,29.1015,-89.9782,1018.26,11111222 
WAVCIS,ioos:station:WAVCIS:CSI09:1,2008-02-09T20:00:00Z,29.1015,-89.9782,1017.86,11111222 
WAVCIS,ioos:station:WAVCIS:CSI09:1,2008-02-09T21:00:00Z,29.1015,-89.9782,1017.71,11111222 
WAVCIS,ioos:station:WAVCIS:CSI09:1,2008-02-09T22:00:00Z,29.1015,-89.9782,1018.37,11111222 
WAVCIS,ioos:station:WAVCIS:CSI09:1,2008-02-09T23:00:00Z,29.1015,-89.9782,1018.93,11111222 
WAVCIS,ioos:station:WAVCIS:CSI09:1,2008-02-10T00:00:00Z,29.1015,-89.9782,1019.35,11111222 
WAVCIS,ioos:station:WAVCIS:CSI09:1,2008-02-10T01:00:00Z,29.1015,-89.9782,1019.74,11111222 
WAVCIS,ioos:station:WAVCIS:CSI09:1,2008-02-10T02:00:00Z,29.1015,-89.9782,1020.5,11111222 
WAVCIS,ioos:station:WAVCIS:CSI09:1,2008-02-10T03:00:00Z,29.1015,-89.9782,1021.48,11111222 
WAVCIS,ioos:station:WAVCIS:CSI09:1,2008-02-10T04:00:00Z,29.1015,-89.9782,1021.77,11111222 
WAVCIS,ioos:station:WAVCIS:CSI09:1,2008-02-10T05:00:00Z,29.1015,-89.9782,1022.19,11111222 
WAVCIS,ioos:station:WAVCIS:CSI09:1,2008-02-10T06:00:00Z,29.1015,-89.9782,1022.32,11111222 
WAVCIS,ioos:station:WAVCIS:CSI09:1,2008-02-10T07:00:00Z,29.1015,-89.9782,1022.56,11111222 
WAVCIS,ioos:station:WAVCIS:CSI09:1,2008-02-10T08:00:00Z,29.1015,-89.9782,1022.56,11111222 
WAVCIS,ioos:station:WAVCIS:CSI09:1,2008-02-10T09:00:00Z,29.1015,-89.9782,1022.52,11111222 
WAVCIS,ioos:station:WAVCIS:CSI09:1,2008-02-10T10:00:00Z,29.1015,-89.9782,1022.59,11111222 
WAVCIS,ioos:station:WAVCIS:CSI09:1,2008-02-10T11:00:00Z,29.1015,-89.9782,1023.25,11111222 
WAVCIS,ioos:station:WAVCIS:CSI09:1,2008-02-10T12:00:00Z,29.1015,-89.9782,1023.69,11111222 
WAVCIS,ioos:station:WAVCIS:CSI09:1,2008-02-10T13:00:00Z,29.1015,-89.9782,1024.38,11111222 
WAVCIS,ioos:station:WAVCIS:CSI09:1,2008-02-10T14:00:00Z,29.1015,-89.9782,1024.99,11111222 
WAVCIS,ioos:station:WAVCIS:CSI09:1,2008-02-10T15:00:00Z,29.1015,-89.9782,1025.63,11111222 
WAVCIS,ioos:station:WAVCIS:CSI09:1,2008-02-10T16:00:00Z,29.1015,-89.9782,1026.36,11111222 
WAVCIS,ioos:station:WAVCIS:CSI09:1,2008-02-10T17:00:00Z,29.1015,-89.9782,1026.69,11111222 
WAVCIS,ioos:station:WAVCIS:CSI09:1,2008-02-10T18:00:00Z,29.1015,-89.9782,1026.4,11111222 
WAVCIS,ioos:station:WAVCIS:CSI09:1,2008-02-10T19:00:00Z,29.1015,-89.9782,1025.61,11111222 
WAVCIS,ioos:station:WAVCIS:CSI09:1,2008-02-10T20:00:00Z,29.1015,-89.9782,1024.96,11111222 
WAVCIS,ioos:station:WAVCIS:CSI09:1,2008-02-10T21:00:00Z,29.1015,-89.9782,1024.68,11111222 
WAVCIS,ioos:station:WAVCIS:CSI09:1,2008-02-10T22:00:00Z,29.1015,-89.9782,1024.41,11111222 
WAVCIS,ioos:station:WAVCIS:CSI09:1,2008-02-10T23:00:00Z,29.1015,-89.9782,1024.3,11111222 
WAVCIS,ioos:station:WAVCIS:CSI09:1,2008-02-11T00:00:00Z,29.1015,-89.9782,1024.38,11111222 
WAVCIS,ioos:station:WAVCIS:CSI09:1,2008-02-11T01:00:00Z,29.1015,-89.9782,1024.64,11111222 
WAVCIS,ioos:station:WAVCIS:CSI09:1,2008-02-11T02:00:00Z,29.1015,-89.9782,1024.76,11111222 
WAVCIS,ioos:station:WAVCIS:CSI09:1,2008-02-11T03:00:00Z,29.1015,-89.9782,1024.85,11111222 
WAVCIS,ioos:station:WAVCIS:CSI09:1,2008-02-11T04:00:00Z,29.1015,-89.9782,1024.94,11111222 
WAVCIS,ioos:station:WAVCIS:CSI09:1,2008-02-11T05:00:00Z,29.1015,-89.9782,1024.61,11111222 
WAVCIS,ioos:station:WAVCIS:CSI09:1,2008-02-11T06:00:00Z,29.1015,-89.9782,1024.11,11111222 
WAVCIS,ioos:station:WAVCIS:CSI09:1,2008-02-11T07:00:00Z,29.1015,-89.9782,1023.31,11111222 
WAVCIS,ioos:station:WAVCIS:CSI09:1,2008-02-11T08:00:00Z,29.1015,-89.9782,1022.85,11111222 
WAVCIS,ioos:station:WAVCIS:CSI09:1,2008-02-11T09:00:00Z,29.1015,-89.9782,1022.29,11111222 
WAVCIS,ioos:station:WAVCIS:CSI09:1,2008-02-11T10:00:00Z,29.1015,-89.9782,1021.94,11111222 
WAVCIS,ioos:station:WAVCIS:CSI09:1,2008-02-11T11:00:00Z,29.1015,-89.9782,1021.99,11111222 
WAVCIS,ioos:station:WAVCIS:CSI09:1,2008-02-11T12:00:00Z,29.1015,-89.9782,1021.93,11111222 
WAVCIS,ioos:station:WAVCIS:CSI09:1,2008-02-11T13:00:00Z,29.1015,-89.9782,1022.3,11111222 
WAVCIS,ioos:station:WAVCIS:CSI09:1,2008-02-11T14:00:00Z,29.1015,-89.9782,1022.78,11111222 
WAVCIS,ioos:station:WAVCIS:CSI09:1,2008-02-11T15:00:00Z,29.1015,-89.9782,1023.28,11111222 
WAVCIS,ioos:station:WAVCIS:CSI09:1,2008-02-11T16:00:00Z,29.1015,-89.9782,1023.34,11111222 
WAVCIS,ioos:station:WAVCIS:CSI09:1,2008-02-11T17:00:00Z,29.1015,-89.9782,1023.18,11111222 
WAVCIS,ioos:station:WAVCIS:CSI09:1,2008-02-11T18:00:00Z,29.1015,-89.9782,1022.16,11111222 
WAVCIS,ioos:station:WAVCIS:CSI09:1,2008-02-11T19:00:00Z,29.1015,-89.9782,1021.06,11111222 
WAVCIS,ioos:station:WAVCIS:CSI09:1,2008-02-11T20:00:00Z,29.1015,-89.9782,1020.74,11111222 
WAVCIS,ioos:station:WAVCIS:CSI09:1,2008-02-11T21:00:00Z,29.1015,-89.9782,1019.67,11111222 
WAVCIS,ioos:station:WAVCIS:CSI09:1,2008-02-11T22:00:00Z,29.1015,-89.9782,1019.35,11111222 
WAVCIS,ioos:station:WAVCIS:CSI09:1,2008-02-11T23:00:00Z,29.1015,-89.9782,1018.56,11111222 